Tracking 25689 objects as of 7-Jul-2022
HD Live streaming from Space Station
objects crossing your sky now

SL-8 R/B

Track SL-8 R/B now!
10-day predictions


NORAD ID: 25893
Int'l Code: 1999-045B
Perigee: 962.4 km
Apogee: 1,003.9 km
Inclination: 82.9 °
Period: 104.6 minutes
Semi major axis: 7354 km
RCS: 5.449 m2 (large)
Launch date: August 26, 1999
Source: Commonwealth of Independent States (former USSR) (CIS)
Launch site: PLESETSK MISSILE AND SPACE COMPLEX (PKMTR)

Note: This is a ROCKET BODY
aabbcc
Your satellite tracking list
Your tracking list is empty




NASA's NSSDC Master Catalog

Two Line Element Set (TLE):
1 25893U 99045B   22187.48122955  .00000055  00000-0  40923-4 0  9992
2 25893  82.9266  90.8785 0028189 337.6718 195.9281 13.76583934148526
Source of the keplerian elements: AFSPC